Regional Weather Roundup
Issued by NWS

Home | Current Version | Previous Version | Text Only | Print | Product List | Glossary Off
Versions: 1 2 3 4 5 6 7 8 9 10 11 12 13 14 15 16 17 18 19 20 21 22 23 24 25 26 27 28 29 30 31 32 33 34 35 36 37 38 39 40 41 42 43 44 45 46 47 48 49 50

000
ASUS43 KDTX 281510
RWRMI
MICHIGAN HOURLY REGIONAL WEATHER ROUNDUP
NATIONAL WEATHER SERVICE DETROIT/PONTIAC MI
1100 AM EDT TUE JUL 28 2015

NOTE: "FAIR" INDICATES FEW OR NO CLOUDS BELOW 12,000 FEET WITH NO
SIGNIFICANT WEATHER AND/OR OBSTRUCTION TO VISIBILITY.

MIZ047>049-052>055-059>063-066>070-074>076-081>083-281600-
SOUTHEAST LOWER MICHIGAN

CITY           SKY/WX    TMP DP  RH WIND       PRES   REMARKS
ADRIAN         SUNNY     82  66  58 SE7       30.04F
ALMA           SUNNY     82  67  60 CALM      30.05F
ANN ARBOR      SUNNY     83  63  50 E6        30.04F
BAD AXE        SUNNY     84  62  47 CALM      30.06S
CARO           SUNNY     85  65  51 SW3       30.04F
DETROIT CITY   SUNNY     83  63  50 VRB5      30.04F
DETROIT        SUNNY     84  63  49 E5        30.04F
FLINT          SUNNY     84  66  54 S3        30.05F
GROSSE ILE     SUNNY     82  64  54 NE5       30.03F
HILLSDALE      SUNNY     80  66  61 SE7       30.05F
HOWELL         SUNNY     83  62  48 S5        30.05F

CITY           SKY/WX    TMP DP  RH WIND       PRES   REMARKS
JACKSON        SUNNY     83  62  49 SE8       30.05F
LAMBERTVILLE   SUNNY     83  66  56 E5        30.04S
LANSING        SUNNY     83  63  50 SE8       30.05F
LAPEER         FAIR      83  62  48 SE3       30.06F
MASON          SUNNY     80  63  56 SE6       30.05F
MONROE         SUNNY     83  61  47 SE5       30.03F
MT. CLEMENS    SUNNY     83  64  54 E3        30.05S
PONTIAC        SUNNY     83  63  50 VRB5      30.05F
PORT HOPE        N/A     80  70  71 NW5       30.03F
PORT HURON     SUNNY     82  64  54 S3        30.04F
TRI CITIES     SUNNY     83  65  54 CALM      30.05F
MIDLAND        FAIR      83  65  54 SW5       30.03F
TROY           SUNNY     86  61  43 E5        30.06F
SAGINAW HB     SUNNY     84  64  51 CALM      30.04S
$$
MIZ043>046-050>051-056>058-064>065-071>073-077>080-281600-
SOUTHWEST LOWER MICHIGAN

CITY           SKY/WX    TMP DP  RH WIND       PRES   REMARKS
BATTLE CREEK   SUNNY     82  63  52 SE6       30.05F
BENTON HARBOR  SUNNY     83  65  54 SE7       30.01F
BIG RAPIDS     SUNNY     81  64  57 SE5       30.04F
COLDWATER      SUNNY     79  66  65 SE3       30.04S
FREMONT        FAIR      82  60  47 S3        30.03S
HOLLAND        SUNNY     83  60  45 SE8       30.03F
GRAND RAPIDS   MOSUNNY   83  64  52 SE10      30.03F
IONIA          FAIR      82  64  53 SE8       30.04S
KALAMAZOO      SUNNY     82  63  52 VRB5      30.03F
LUDINGTON      SUNNY     83  61  46 SW10      30.03R
MARSHALL       SUNNY     81  64  55 SE5       30.04F
MOUNT PLEASANT SUNNY     84  64  51 SE5       30.02F
MUSKEGON       MOSUNNY   84  62  47 S10       30.02F
SOUTH HAVEN    SUNNY     81  63  54 SE6       30.02S
$$
MIZ016>042-281600-
NORTHERN LOWER MICHIGAN

CITY           SKY/WX    TMP DP  RH WIND       PRES   REMARKS
ALPENA         SUNNY     86  61  42 VRB5      30.04F
BEAVER ISLAND  SUNNY     83  59  43 SE6       30.02S
BELLAIRE       SUNNY     87  57  35 S6        30.01F
CADILLAC       SUNNY     84  65  51 S8        30.05S
CHARLEVOIX     SUNNY     82  65  55 NE3       30.04F
FRANKFORT      SUNNY     85  64  48 SW7       30.02S
GAYLORD        SUNNY     85  56  37 S10       30.05F
GRAYLING       SUNNY     86  60  41 SE7       30.05F
HARBOR SPRINGS SUNNY     85  66  53 CALM      30.01F
HOUGHTON LAKE  SUNNY     83  66  56 S6        30.04F
MANISTEE       SUNNY     81  63  54 SW5       30.03R
OSCODA         SUNNY     86  56  36 SE6       30.04S
PELLSTON       SUNNY     86  61  42 S6        30.03S
ROGERS CITY    SUNNY     81  64  56 N5        30.04F
TRAVERSE CITY  MOSUNNY   87  60  40 VRB5      29.99F
$$
MIZ007>008-015-281600-
EASTERN UPPER MICHIGAN

CITY           SKY/WX    TMP DP  RH WIND       PRES   REMARKS
KINROSS        SUNNY     84  57  39 SW3       30.04S
MACKINAC ISLAN SUNNY     82  59  45 CALM      30.03R
MUNISING         N/A     83  64  52 VRB7      29.97F
$$
MIZ004>006-011>014-085-281600-
CENTRAL UPPER MICHIGAN

CITY           SKY/WX    TMP DP  RH WIND       PRES   REMARKS
MANISTIQUE     MOSUNNY   77  61  57 S6        30.02R
ESCANABA       MOSUNNY   79  63  57 S7        30.00S
MENOMINEE      PTSUNNY   81  63  54 S8        30.00S
SAWYER-GWINN   SUNNY     79  57  47 SW18      30.01S
$$
MIZ001>003-009>011-084-281600-
WESTERN UPPER MICHIGAN

CITY           SKY/WX    TMP DP  RH WIND       PRES   REMARKS
IRON MOUNTAIN  PTSUNNY   79  62  56 S10       30.00F
HOUGHTON       CLOUDY    74  64  71 S7        29.95S
COPPER HARBOR    N/A     78  63  59 SW9       29.93F
IRONWOOD       CLOUDY    73  64  73 S12G17    29.88F
$$

ABBREVIATIONS USED IN REMARKS
   TC - TEMPERATURE IN CELSIUS
  WCI - WIND CHILL INDEX
   HX - HEAT INDEX
  VSB - VISIBILITY




USA.gov is the U.S. government's official web portal to all federal, state and local government web resources and services.